615VGS Twitter

615vgs Well done Matthew Winwood! http://t.co/2yz17n0bmF
615vgs Well done Matthew Winwood! http://t.co/stFKnV0jYo
615vgs Very excited Boss today... http://t.co/iJw8S8DNQr
615vgs RT @KC615VGS: That's it then! OC.615VGS email & the Sqn is in the safe hands of Flt Lt Paul Reed. If you want me use MTO.615VGS@aircadets.o…

615VGS Facebook

Staff Login


Staff who require login details should contact the MCO.

Join 615 VGS

 

 

Upcoming Events

615 VGS Partner

bigatmo

Course Photos 2013

KY Aviation Wx

[source: ADDS]
METAR
EGKB 241250Z 18003KT 9999 SCT035 15/04 Q1019 =
TAF
TAF EGKB 241103Z 2412/2420 VRB03KT 9999 SCT025 PROB30 TEMPO 2412/2418 6000 SHRA =
SR / SS: 04:44 / 19:10 UTC (Sunrise/Sunset 2014-04-24)